FW7813 Weather Reports


time (UTC)temp
C
wind
direction
speed
KPH
gust
KPH
rain 1hr
cm
rain 24hr
cm
rain mn
cm
humidity
%
barometer
mb
20260506081541 7 0 1.6 11.3 0.00 0.00 0.00 76 1013.5
20260506081032 7 67 1.6 11.3 0.00 0.00 0.00 75 1013.6
20260506080533 7 90 3.2 11.3 0.00 0.00 0.00 75 1013.4
20260506073048 6 99 1.6 12.9 0.00 0.00 0.00 76 1012.8
20260506072531 6 49 3.2 12.9 0.00 0.00 0.00 76 1012.9
20260506072030 6 69 1.6 9.7 0.00 0.00 0.00 76 1013.2
20260506071545 6 134 1.6 6.4 0.00 0.00 0.00 76 1013.4
20260506071028 6 0 0.0 6.4 0.00 0.00 0.00 76 1013.7
20260506070529 6 0 0.0 6.4 0.00 0.00 0.00 77 1014.1
20260506062032 6 38 0.0 9.7 0.00 0.00 0.00 75 1013.2
20260506061544 6 0 0.0 9.7 0.00 0.00 0.00 74 1013.1
20260506061029 6 86 1.6 8.0 0.00 0.00 0.00 75 1013.2
20260506060533 7 0 0.0 11.3 0.00 0.00 0.00 74 1013.2
20260506051029 7 49 1.6 12.9 0.00 0.00 0.00 70 1011.9
20260506050529 8 74 1.6 12.9 0.00 0.00 0.00 70 1012.0
20260506045031 8 96 4.8 20.9 0.00 0.00 0.00 69 1012.1
20260506044554 8 91 3.2 20.9 0.00 0.00 0.00 68 1011.9
20260506044032 8 59 6.4 20.9 0.00 0.00 0.00 68 1011.9
20260506043535 8 49 3.2 17.7 0.00 0.00 0.00 67 1011.7
20260506043053 8 99 3.2 17.7 0.00 0.00 0.00 66 1011.9
20260506042532 8 75 3.2 12.9 0.00 0.00 0.00 65 1011.8
20260506042030 9 60 3.2 12.9 0.00 0.00 0.00 65 1011.8
20260506041546 9 74 4.8 11.3 0.00 0.00 0.00 64 1011.9
20260506041031 9 47 3.2 11.3 0.00 0.00 0.00 63 1011.8
20260506040529 9 91 3.2 16.1 0.00 0.00 0.00 63 1011.8
20260506040048 10 68 3.2 16.1 0.00 0.00 0.00 62 1011.7
20260506035529 10 66 3.2 16.1 0.00 0.00 0.00 62 1011.7
20260506035032 10 68 4.8 17.7 0.00 0.00 0.00 61 1011.7
20260506034538 10 61 3.2 17.7 0.00 0.00 0.00 61 1011.7
20260506034032 10 66 4.8 17.7 0.00 0.00 0.00 61 1011.7
20260506033528 10 126 4.8 14.5 0.00 0.00 0.00 60 1011.5
20260506033045 10 62 1.6 11.3 0.00 0.00 0.00 60 1011.3
20260506032529 10 83 1.6 12.9 0.00 0.00 0.00 59 1011.2
20260506032029 10 39 1.6 16.1 0.00 0.00 0.00 59 1011.3
20260506031547 10 90 4.8 16.1 0.00 0.00 0.00 58 1011.4
20260506031029 11 98 4.8 16.1 0.00 0.00 0.00 58 1011.3
20260506030528 11 74 3.2 14.5 0.00 0.00 0.00 58 1011.1
20260506030042 11 81 4.8 16.1 0.00 0.00 0.00 57 1011.3
20260506025528 11 44 4.8 16.1 0.00 0.00 0.00 57 1011.2
20260506025028 11 80 4.8 16.1 0.00 0.00 0.00 57 1010.9
20260506024546 11 70 4.8 17.7 0.00 0.00 0.00 56 1010.8
20260506024028 11 61 4.8 17.7 0.00 0.00 0.00 56 1010.9
20260506023529 11 97 4.8 19.3 0.00 0.00 0.00 55 1010.7
20260506023040 11 82 4.8 19.3 0.00 0.00 0.00 55 1010.8
20260506022528 12 63 6.4 19.3 0.00 0.00 0.00 55 1010.8
20260506022033 12 71 3.2 14.5 0.00 0.00 0.00 54 1010.7
20260506021551 12 94 4.8 17.7 0.00 0.00 0.00 54 1010.4
20260506021028 12 69 3.2 17.7 0.00 0.00 0.00 53 1010.5
20260506020533 12 5 4.8 17.7 0.00 0.00 0.00 53 1010.4
20260506020044 12 49 4.8 12.9 0.00 0.00 0.00 52 1010.5
20260506015529 13 42 3.2 12.9 0.00 0.00 0.00 52 1010.4
20260506015029 13 80 4.8 12.9 0.00 0.00 0.00 51 1010.6
20260506014543 13 0 4.8 14.5 0.00 0.00 0.00 51 1010.6
20260506014028 13 84 1.6 16.1 0.00 0.00 0.00 50 1010.6
20260506013528 13 74 3.2 16.1 0.00 0.00 0.00 50 1010.2
20260506013045 13 40 3.2 17.7 0.00 0.00 0.00 50 1009.7
20260506012529 13 115 4.8 17.7 0.00 0.00 0.00 49 1009.6
20260506012029 13 0 3.2 17.7 0.00 0.00 0.00 49 1009.5
20260506011548 13 327 3.2 16.1 0.00 0.00 0.00 49 1009.5
20260506011032 14 63 3.2 16.1 0.00 0.00 0.00 49 1009.4
20260506010530 14 49 3.2 16.1 0.00 0.00 0.00 49 1009.3
20260506010047 14 78 3.2 14.5 0.00 0.00 0.00 48 1009.2
20260506005527 14 338 3.2 14.5 0.00 0.00 0.00 48 1009.1
20260506005031 14 35 4.8 12.9 0.00 0.00 0.00 48 1008.9
20260506004537 15 79 4.8 12.9 0.00 0.00 0.00 47 1008.9
20260506004029 15 355 3.2 16.1 0.00 0.00 0.00 47 1008.8
20260506003529 15 77 3.2 17.7 0.00 0.00 0.00 46 1008.6
20260506003045 15 61 6.4 17.7 0.00 0.00 0.00 46 1008.6
20260506002532 15 52 4.8 17.7 0.00 0.00 0.00 46 1008.7
20260506002028 15 54 4.8 12.9 0.00 0.00 0.00 45 1008.6
20260506001544 15 76 4.8 17.7 0.00 0.00 0.00 46 1008.6
20260506001029 15 65 4.8 17.7 0.00 0.00 0.00 45 1008.3
20260506000529 15 71 4.8 16.1 0.00 0.00 0.00 45 1008.6
20260506000043 16 28 4.8 17.7 0.00 0.00 0.00 45 1008.6
20260505235528 16 54 4.8 17.7 0.00 0.00 0.00 44 1008.6
20260505235031 16 126 4.8 17.7 0.00 0.00 0.00 44 1008.6
20260505234604 16 59 4.8 17.7 0.00 0.00 0.00 44 1008.6
20260505234028 16 80 4.8 20.9 0.00 0.00 0.00 44 1008.6
20260505233528 16 109 8.0 20.9 0.00 0.00 0.00 44 1008.6
20260505233042 16 92 6.4 17.7 0.00 0.00 0.00 44 1008.6
20260505232529 16 70 4.8 20.9 0.00 0.00 0.00 44 1008.6
20260505232028 16 107 4.8 20.9 0.00 0.00 0.00 44 1008.5
20260505231539 16 105 4.8 20.9 0.00 0.00 0.00 44 1008.5
20260505231029 16 78 6.4 20.9 0.00 0.00 0.00 44 1008.6
20260505230528 16 67 6.4 19.3 0.00 0.00 0.00 44 1008.8
20260505230047 16 82 8.0 19.3 0.00 0.00 0.00 44 1008.8
20260505225529 16 88 4.8 14.5 0.00 0.00 0.00 44 1008.8
20260505225029 16 53 4.8 14.5 0.00 0.00 0.00 44 1008.9
20260505224544 16 85 3.2 14.5 0.00 0.00 0.00 44 1008.9
20260505224028 16 70 6.4 14.5 0.00 0.00 0.00 44 1009.1
20260505223529 17 61 3.2 11.3 0.00 0.00 0.00 44 1009.0
20260505223053 17 38 1.6 17.7 0.00 0.00 0.00 44 1008.9
20260505222528 17 294 4.8 17.7 0.00 0.00 0.00 44 1009.2
20260505222028 17 80 4.8 17.7 0.00 0.00 0.00 43 1009.1
20260505221542 17 28 3.2 17.7 0.00 0.00 0.00 43 1008.9
20260505221029 17 57 4.8 11.3 0.00 0.00 0.00 42 1009.1
20260505220528 17 293 1.6 14.5 0.00 0.00 0.00 42 1009.1
20260505220043 17 80 1.6 17.7 0.00 0.00 0.00 43 1009.3
20260505215529 17 74 8.0 17.7 0.00 0.00 0.00 43 1009.2
20260505215028 17 98 4.8 17.7 0.00 0.00 0.00 42 1009.1
20260505214550 17 59 4.8 17.7 0.00 0.00 0.00 42 1009.3
20260505214030 17 31 4.8 14.5 0.00 0.00 0.00 41 1009.6
20260505213528 17 42 4.8 14.5 0.00 0.00 0.00 41 1009.8
20260505213045 17 25 3.2 14.5 0.00 0.00 0.00 41 1009.9
20260505212531 17 153 3.2 14.5 0.00 0.00 0.00 42 1009.9
20260505212031 17 69 4.8 12.9 0.00 0.00 0.00 41 1009.9
20260505211552 17 34 3.2 8.0 0.00 0.00 0.00 41 1010.0
20260505211028 17 12 1.6 8.0 0.00 0.00 0.00 42 1010.2
20260505210532 17 41 1.6 14.5 0.00 0.00 0.00 43 1010.3
20260505210045 17 88 3.2 14.5 0.00 0.00 0.00 42 1010.2
20260505205529 17 101 0.0 9.7 0.00 0.00 0.00 43 1010.5
20260505205028 17 316 1.6 9.7 0.00 0.00 0.00 43 1010.5
20260505204543 17 77 1.6 12.9 0.00 0.00 0.00 42 1010.6
20260505204028 17 0 3.2 14.5 0.00 0.00 0.00 43 1010.7
20260505203528 17 57 4.8 14.5 0.00 0.00 0.00 43 1010.3
20260505203051 17 65 3.2 16.1 0.00 0.00 0.00 43 1010.5
20260505202528 16 89 3.2 16.1 0.00 0.00 0.00 43 1010.5
20260505202028 16 58 4.8 16.1 0.00 0.00 0.00 43 1010.6
20260505201538 16 70 4.8 16.1 0.00 0.00 0.00 43 1010.9
20260505201028 16 315 1.6 11.3 0.00 0.00 0.00 44 1010.7
20260505200528 16 0 3.2 12.9 0.00 0.00 0.00 44 1010.7
20260505200045 16 102 4.8 12.9 0.00 0.00 0.00 43 1010.7
20260505195528 17 86 1.6 17.7 0.00 0.00 0.00 43 1010.7
20260505195031 16 310 4.8 17.7 0.00 0.00 0.00 43 1010.7
20260505194545 16 51 4.8 17.7 0.00 0.00 0.00 43 1010.5
20260505194029 16 87 4.8 17.7 0.00 0.00 0.00 44 1010.7
20260505193531 16 89 4.8 19.3 0.00 0.00 0.00 43 1010.7
20260505193043 16 78 6.4 19.3 0.00 0.00 0.00 44 1010.6
20260505192528 16 119 4.8 19.3 0.00 0.00 0.00 45 1010.7
20260505192030 16 360 1.6 11.3 0.00 0.00 0.00 45 1010.8
20260505191547 16 39 1.6 9.7 0.00 0.00 0.00 45 1011.1
20260505191029 16 80 3.2 12.9 0.00 0.00 0.00 44 1010.9
20260505190529 16 313 3.2 16.1 0.00 0.00 0.00 45 1010.9
20260505190042 16 333 4.8 17.7 0.00 0.00 0.00 45 1011.1
20260505185528 16 333 4.8 17.7 0.00 0.00 0.00 43 1011.0
20260505185029 16 310 1.6 12.9 0.00 0.00 0.00 45 1010.9
20260505184547 16 40 4.8 16.1 0.00 0.00 0.00 44 1011.2
20260505184029 16 34 1.6 16.1 0.00 0.00 0.00 45 1011.3
20260505183529 15 304 3.2 16.1 0.00 0.00 0.00 46 1011.1
20260505183046 15 360 3.2 16.1 0.00 0.00 0.00 46 1011.1
20260505182531 15 65 4.8 19.3 0.00 0.00 0.00 46 1011.0
20260505182028 15 360 4.8 19.3 0.00 0.00 0.00 46 1010.9
20260505181541 15 43 4.8 16.1 0.00 0.00 0.00 45 1011.2
20260505181031 16 349 3.2 16.1 0.00 0.00 0.00 45 1011.4
20260505180532 16 347 4.8 19.3 0.00 0.00 0.00 46 1011.5
20260505180045 15 326 4.8 19.3 0.00 0.00 0.00 46 1011.3
20260505175529 16 296 4.8 19.3 0.00 0.00 0.00 44 1011.4
20260505175028 16 344 4.8 22.5 0.00 0.00 0.00 43 1011.2
20260505174540 16 41 4.8 22.5 0.00 0.00 0.00 43 1011.2
20260505174031 16 5 8.0 22.5 0.00 0.00 0.00 46 1011.1
20260505173529 15 10 4.8 16.1 0.00 0.00 0.00 46 1011.1
20260505173044 15 344 4.8 16.1 0.00 0.00 0.00 46 1011.0
20260505172529 15 90 4.8 17.7 0.00 0.00 0.00 46 1011.2
20260505172029 15 27 4.8 17.7 0.00 0.00 0.00 46 1011.0
20260505171544 15 52 4.8 17.7 0.00 0.00 0.00 47 1011.0
20260505171028 15 355 3.2 24.1 0.00 0.00 0.00 48 1011.2
20260505170528 15 5 6.4 24.1 0.00 0.00 0.00 47 1011.1
20260505170044 15 315 3.2 17.7 0.00 0.00 0.00 47 1011.0
20260505165529 15 48 6.4 24.1 0.00 0.00 0.00 47 1011.1
20260505165029 15 13 6.4 24.1 0.00 0.00 0.00 48 1011.0
20260505164545 15 299 6.4 24.1 0.00 0.00 0.00 47 1011.0
20260505164028 15 28 4.8 16.1 0.00 0.00 0.00 47 1011.2
20260505163527 15 44 3.2 17.7 0.00 0.00 0.00 47 1011.4
20260505163041 15 311 4.8 17.7 0.00 0.00 0.00 49 1011.3
20260505162528 15 352 4.8 17.7 0.00 0.00 0.00 49 1011.3
20260505162028 15 333 6.4 20.9 0.00 0.00 0.00 48 1011.2
20260505161540 15 355 4.8 20.9 0.00 0.00 0.00 49 1011.2
20260505161031 15 24 4.8 17.7 0.00 0.00 0.00 48 1011.2
20260505160529 15 301 4.8 17.7 0.00 0.00 0.00 48 1011.0
20260505153049 13 76 4.8 14.5 0.00 0.00 0.00 49 1010.5
20260505152528 13 307 4.8 14.5 0.00 0.00 0.00 48 1010.6
20260505152030 13 90 3.2 16.1 0.00 0.00 0.00 49 1010.4
20260505151545 13 319 4.8 19.3 0.00 0.00 0.00 48 1010.2
20260505151028 13 334 3.2 19.3 0.00 0.00 0.00 48 1010.4
20260505150529 13 0 4.8 19.3 0.00 0.00 0.00 48 1010.0
20260505140530 12 59 1.6 17.7 0.00 0.00 0.00 51 1009.8
20260505125032 12 291 4.8 14.5 0.00 0.00 0.00 53 1008.1
20260505124554 12 304 3.2 14.5 0.00 0.00 0.00 52 1008.1
20260505124033 12 299 3.2 12.9 0.00 0.00 0.00 53 1007.9
20260505123532 12 304 4.8 14.5 0.00 0.00 0.00 53 1007.8
20260505123055 12 302 3.2 16.1 0.00 0.00 0.00 53 1007.7
20260505122533 12 360 3.2 16.1 0.00 0.00 0.00 53 1007.8
20260505122032 12 5 3.2 16.1 0.00 0.00 0.00 53 1007.5
20260505121550 12 0 3.2 16.1 0.00 0.00 0.00 54 1007.4
20260505121032 12 306 1.6 16.1 0.00 0.00 0.00 54 1007.4
20260505120536 12 238 4.8 16.1 0.00 0.00 0.00 54 1007.5
20260505120048 12 0 1.6 11.3 0.00 0.00 0.00 54 1007.4
20260505115531 12 0 1.6 12.9 0.00 0.00 0.00 55 1007.4
20260505115031 13 327 3.2 14.5 0.00 0.00 0.00 55 1007.3
20260505114544 13 294 3.2 14.5 0.00 0.00 0.00 55 1007.2
20260505114032 13 351 3.2 14.5 0.00 0.00 0.00 55 1006.9
20260505113533 13 312 1.6 14.5 0.00 0.00 0.00 56 1007.1
20260505113101 13 311 3.2 16.1 0.00 0.00 0.00 56 1007.1
20260505112532 13 0 6.4 16.1 0.00 0.00 0.00 56 1007.0
20260505112033 13 304 4.8 14.5 0.00 0.00 0.00 56 1006.9
20260505111546 13 302 3.2 19.3 0.00 0.00 0.00 56 1006.6
20260505111032 13 345 4.8 19.3 0.00 0.00 0.00 56 1006.7
20260505110533 14 292 4.8 19.3 0.00 0.00 0.00 57 1006.7
20260505102033 16 299 8.0 22.5 0.00 0.00 0.00 50 1005.9
20260505101551 16 289 6.4 22.5 0.00 0.00 0.00 48 1005.8
20260505101032 17 317 8.0 24.1 0.00 0.00 0.00 45 1005.8
20260505100533 17 325 9.7 24.1 0.00 0.00 0.00 41 1005.6
20260505100044 18 323 8.0 17.7 0.00 0.00 0.00 34 1005.6
20260505095530 18 308 6.4 19.3 0.00 0.00 0.00 30 1005.3
20260505095033 18 321 6.4 19.3 0.00 0.00 0.00 29 1005.1
20260505094550 18 259 4.8 14.5 0.00 0.00 0.00 29 1005.1
20260505094032 18 279 1.6 8.0 0.00 0.00 0.00 30 1004.9
20260505093532 17 0 0.0 6.4 0.00 0.00 0.00 32 1004.7
20260505093051 17 230 0.0 6.4 0.00 0.00 0.00 32 1004.8
20260505092532 17 227 0.0 4.8 0.00 0.00 0.00 32 1004.8
20260505092033 17 0 0.0 3.2 0.00 0.00 0.00 33 1004.7
20260505091539 17 0 0.0 3.2 0.00 0.00 0.00 33 1004.7
20260505091032 18 0 0.0 8.0 0.00 0.00 0.00 33 1004.4
20260505090532 18 0 0.0 8.0 0.00 0.00 0.00 32 1004.0
20260505090055 18 0 1.6 8.0 0.00 0.00 0.00 30 1003.8
20260505085535 18 0 0.0 6.4 0.00 0.00 0.00 30 1004.0
20260505085033 18 0 0.0 6.4 0.00 0.00 0.00 29 1003.9
20260505084544 18 258 0.0 6.4 0.00 0.00 0.00 29 1003.9
20260505084031 19 0 0.0 4.8 0.00 0.00 0.00 29 1003.9
20260505083533 19 0 0.0 4.8 0.00 0.00 0.00 30 1003.8
20260505083101 19 0 0.0 8.0 0.00 0.00 0.00 29 1003.8
20260505082532 19 306 0.0 8.0 0.00 0.00 0.00 29 1003.7
20260505082031 19 333 0.0 6.4 0.00 0.00 0.00 28 1003.9